This is the latest recevied weather packets stored in our database for station/object SP5EB-3. If no packets are shown the sender has not sent any weather packets the latest 10 day(s).
| Time | Temp. | Humidity | Pressure | Rain* | Wind** | Luminosity | Snow |
|---|---|---|---|---|---|---|---|
| 1777295491 | 18.89° C | 99% | 1018.6 hPa | - | - | - | - |
| 1777295183 | 18.89° C | 99% | 1018.6 hPa | - | - | - | - |
| 1777294875 | 18.33° C | 99% | 1018.7 hPa | - | - | - | - |
| 1777294625 | 18.33° C | 99% | 1018.5 hPa | - | - | - | - |
| 1777294569 | 18.33° C | 99% | 1018.5 hPa | - | - | - | - |
| 1777294258 | 17.78° C | 99% | 1018.7 hPa | - | - | - | - |
| 1777293334 | 17.22° C | 99% | 1018.7 hPa | - | - | - | - |
| 1777293027 | 17.22° C | 99% | 1019.1 hPa | - | - | - | - |
| 1777292719 | 17.22° C | 99% | 1018.9 hPa | - | - | - | - |
| 1777292410 | 17.22° C | 99% | 1018.7 hPa | - | - | - | - |
| 1777291794 | 16.67° C | 99% | 1018.8 hPa | - | - | - | - |
| 1777291486 | 17.22° C | 99% | 1018.8 hPa | - | - | - | - |
| 1777291178 | 17.22° C | 99% | 1018.9 hPa | - | - | - | - |
| 1777290871 | 16.67° C | 99% | 1018.9 hPa | - | - | - | - |
| 1777290562 | 16.67° C | 99% | 1018.8 hPa | - | - | - | - |
| 1777290254 | 16.11° C | 99% | 1018.8 hPa | - | - | - | - |
| 1777289331 | 15° C | 99% | 1018.9 hPa | - | - | - | - |
| 1777289023 | 15° C | 99% | 1018.7 hPa | - | - | - | - |
| 1777288715 | 15° C | 99% | 1018.9 hPa | - | - | - | - |
| 1777288407 | 15° C | 99% | 1019 hPa | - | - | - | - |
| 1777288100 | 14.44° C | 99% | 1019.1 hPa | - | - | - | - |
| 1777287792 | 13.89° C | 99% | 1018.9 hPa | - | - | - | - |
| 1777287485 | 13.89° C | 99% | 1019 hPa | - | - | - | - |
| 1777286562 | 13.33° C | 99% | 1019.1 hPa | - | - | - | - |
| 1777286255 | 13.33° C | 99% | 1018.9 hPa | - | - | - | - |
* Rain since midnight (hover to see other rain measurements)
** Current wind speed in m/s (hover to see current wind gust speed)